TimePDT,TemperatureF,Dew PointF,Humidity,Sea Level PressureIn,VisibilityMPH,Wind Direction,Wind SpeedMPH,Gust SpeedMPH,PrecipitationIn,Events,Conditions,WindDirDegrees,DateUTC
12:52 AM,75.0,39.9,28,29.89,10.0,NNW,15.0,-,N/A,,Clear,330,2013-04-05 07:52:00
1:52 AM,73.0,43.0,34,29.89,10.0,NNW,15.0,-,N/A,,Clear,340,2013-04-05 08:52:00
2:52 AM,72.0,44.1,37,29.89,10.0,NNW,15.0,21.9,N/A,,Clear,330,2013-04-05 09:52:00
3:52 AM,69.1,44.1,40,29.88,10.0,NW,10.4,-,N/A,,Clear,320,2013-04-05 10:52:00
4:52 AM,69.1,46.0,44,29.87,10.0,NNW,12.7,-,N/A,,Clear,330,2013-04-05 11:52:00
5:52 AM,63.0,46.0,54,29.88,10.0,WNW,3.5,-,N/A,,Clear,290,2013-04-05 12:52:00
6:52 AM,61.0,46.0,58,29.89,10.0,Calm,Calm,-,N/A,,Clear,0,2013-04-05 13:52:00
7:52 AM,69.1,50.0,51,29.92,10.0,WNW,4.6,-,N/A,,Clear,300,2013-04-05 14:52:00
8:52 AM,73.9,46.9,38,29.96,10.0,NW,13.8,-,N/A,,Clear,320,2013-04-05 15:52:00
9:52 AM,77.0,46.0,33,29.93,10.0,NW,9.2,-,N/A,,Clear,320,2013-04-05 16:52:00
10:52 AM,81.0,39.0,22,29.96,10.0,SE,4.6,-,N/A,,Clear,140,2013-04-05 17:52:00
11:52 AM,82.9,37.0,19,29.91,10.0,NNW,4.6,-,N/A,,Clear,340,2013-04-05 18:52:00
12:52 PM,84.9,30.9,14,29.88,10.0,SW,3.5,-,N/A,,Clear,230,2013-04-05 19:52:00
1:52 PM,87.1,34.0,15,29.86,10.0,NW,8.1,-,N/A,,Clear,310,2013-04-05 20:52:00
2:52 PM,89.1,34.0,14,29.83,10.0,NW,10.4,-,N/A,,Clear,310,2013-04-05 21:52:00
3:52 PM,89.1,33.1,14,29.81,10.0,NNW,10.4,-,N/A,,Clear,330,2013-04-05 22:52:00
4:52 PM,88.0,39.9,18,29.80,10.0,North,12.7,-,N/A,,Clear,350,2013-04-05 23:52:00
5:52 PM,84.0,41.0,22,29.80,10.0,NNW,18.4,26.5,N/A,,Clear,330,2013-04-06 00:52:00
6:52 PM,79.0,43.0,28,29.79,10.0,NNW,20.7,-,N/A,,Clear,330,2013-04-06 01:52:00
7:52 PM,75.9,45.0,33,29.80,10.0,NNW,17.3,24.2,N/A,,Clear,330,2013-04-06 02:52:00
8:52 PM,75.0,48.9,40,29.83,8.0,NNW,20.7,29.9,N/A,,Clear,330,2013-04-06 03:52:00
9:52 PM,73.0,48.0,41,29.84,10.0,NNW,21.9,31.1,N/A,,Clear,330,2013-04-06 04:52:00
10:52 PM,72.0,48.9,44,29.85,10.0,NNW,20.7,31.1,N/A,,Clear,340,2013-04-06 05:52:00
11:52 PM,72.0,50.0,46,29.88,10.0,NNW,16.1,26.5,N/A,,Clear,330,2013-04-06 06:52:00